Location: Melbourne
(37.8666°S, 145.1333°E)
Time: 04:55:49
(UTC+11:00)

Iridium 72 - Visible Passes

Search period start: 07 December 2016 00:00
Search period end: 17 December 2016 00:00
Orbit: 776 x 779 km, 86.4° (Epoch: 05 December)

Date Brightness Start Highest point End Pass type
(mag) Time Alt. Az. Time Alt. Az. Time Alt. Az.
07 Dec 8.3 03:11:51 10° E 03:13:29 11° ESE 03:15:08 10° ESE visible
07 Dec 5.5 04:48:12 10° N 04:53:26 74° W 04:58:45 10° S visible
08 Dec 6.1 04:14:49 10° NNE 04:19:58 59° E 04:25:10 10° S visible
09 Dec 7.2 03:42:01 10° NE 03:46:36 31° E 03:51:14 10° SSE visible
10 Dec 8.0 03:10:03 10° ENE 03:13:22 17° E 03:16:42 10° SE visible
10 Dec 5.8 04:48:31 10° NNW 04:53:35 50° W 04:58:44 10° S visible
11 Dec 5.6 04:15:25 14° N 04:20:01 87° E 04:25:21 10° S visible
12 Dec 6.5 03:42:20 14° NNE 03:46:36 46° E 03:51:38 10° SSE visible
13 Dec 7.4 03:09:13 11° NE 03:13:17 25° E 03:17:31 10° SSE visible
13 Dec 6.3 04:49:42 13° NW 04:53:47 34° W 04:58:35 10° SSW visible
14 Dec 8.1 02:37:42 10° ENE 02:40:06 13° ESE 02:42:30 10° SE visible
14 Dec 5.6 04:16:34 20° NNW 04:20:08 64° W 04:25:25 10° S visible
15 Dec 5.8 03:43:24 24° NNE 03:46:38 68° E 03:51:54 10° S visible
16 Dec 6.8 03:10:14 20° NE 03:13:15 36° E 03:18:03 10° SSE visible
16 Dec 6.8 04:50:43 14° NW 04:54:00 24° W 04:58:14 10° SSW visible
